Hourly Weather Aliağa

Today, 4 March, Thursday

Time Temperature Precipitation Wind Pressure Humidity
00:00 +3°C° 0 mm 4 mps 764 mmHg 86%
01:00 +3°C° 0 mm 4 mps 764 mmHg 87%
02:00 +3°C° 0 mm 4 mps 764 mmHg 87%
03:00 +1°C° 0 mm 4 mps 764 mmHg 87%
04:00 +1°C° 0 mm 4 mps 764 mmHg 87%
05:00 +1°C° 0 mm 4 mps 763 mmHg 86%
06:00 +1°C° 0 mm 4 mps 763 mmHg 83%
07:00 +3°C° 0 mm 3 mps 763 mmHg 81%
08:00 +3°C° 0 mm 3 mps 763 mmHg 78%
09:00 +7°C° 0 mm 3 mps 763 mmHg 67%
10:00 +9°C° 0 mm 3 mps 763 mmHg 57%
11:00 +11°C° 0 mm 3 mps 763 mmHg 46%
12:00 +12°C° 0 mm 3 mps 762 mmHg 43%
13:00 +13°C° 0 mm 3 mps 761 mmHg 39%
14:00 +16°C° 0 mm 3 mps 761 mmHg 36%
15:00 +15°C° 0 mm 2 mps 761 mmHg 40%
16:00 +15°C° 0 mm 2 mps 760 mmHg 43%
17:00 +14°C° 0 mm 2 mps 760 mmHg 47%
18:00 +13°C° 0 mm 2 mps 760 mmHg 50%
19:00 +11°C° 0 mm 1 mps 760 mmHg 52%
20:00 +10°C° 0 mm 1 mps 760 mmHg 55%
21:00 +9°C° 0 mm 1 mps 760 mmHg 55%
22:00 +9°C° 0 mm 1 mps 761 mmHg 55%
23:00 +8°C° 0 mm 1 mps 761 mmHg 55%

Tomorrow, 5 March, Friday

Time Temperature Precipitation Wind Pressure Humidity
00:00 +8°C° 0 mm 1 mps 760 mmHg 55%
01:00 +8°C° 0 mm 1 mps 760 mmHg 55%
02:00 +8°C° 0 mm 1 mps 760 mmHg 55%
03:00 +7°C° 0 mm 1 mps 760 mmHg 55%
04:00 +7°C° 0 mm 1 mps 760 mmHg 55%
05:00 +6°C° 0 mm 2 mps 760 mmHg 55%
06:00 +7°C° 0 mm 2 mps 760 mmHg 54%
07:00 +7°C° 0 mm 2 mps 760 mmHg 54%
08:00 +8°C° 0 mm 2 mps 760 mmHg 53%
09:00 +10°C° 0 mm 2 mps 760 mmHg 47%
10:00 +14°C° 0 mm 2 mps 760 mmHg 41%
11:00 +16°C° 0 mm 2 mps 760 mmHg 36%
12:00 +17°C° 0 mm 3 mps 760 mmHg 35%
13:00 +18°C° 0 mm 4 mps 759 mmHg 34%
14:00 +19°C° 0 mm 4 mps 759 mmHg 33%
15:00 +18°C° 0 mm 4 mps 759 mmHg 38%
16:00 +18°C° 0 mm 4 mps 759 mmHg 44%
17:00 +17°C° 0 mm 4 mps 759 mmHg 49%
18:00 +14°C° 0 mm 4 mps 759 mmHg 54%
19:00 +13°C° 0 mm 4 mps 759 mmHg 59%
20:00 +11°C° 0 mm 4 mps 759 mmHg 64%
21:00 +11°C° 0 mm 4 mps 760 mmHg 66%
22:00 +10°C° 0 mm 3 mps 760 mmHg 67%
23:00 +10°C° 0 mm 3 mps 760 mmHg 69%

Day after tomorrow, 6 March, Saturday

Time Temperature Precipitation Wind Pressure Humidity
00:00 +10°C° 0 mm 3 mps 760 mmHg 69%
01:00 +10°C° 0 mm 3 mps 760 mmHg 70%
02:00 +9°C° 0 mm 3 mps 760 mmHg 71%
03:00 +9°C° 0 mm 3 mps 760 mmHg 72%
04:00 +9°C° 0 mm 3 mps 760 mmHg 73%
05:00 +9°C° 0 mm 3 mps 760 mmHg 73%
06:00 +10°C° 0.1 mm 3 mps 760 mmHg 74%
07:00 +10°C° 0.1 mm 3 mps 760 mmHg 75%
08:00 +11°C° 0.1 mm 3 mps 760 mmHg 75%
09:00 +12°C° 0.1 mm 4 mps 761 mmHg 71%
10:00 +13°C° 0.1 mm 4 mps 761 mmHg 67%
11:00 +14°C° 0.1 mm 5 mps 761 mmHg 62%
12:00 +15°C° 0.2 mm 5 mps 761 mmHg 63%
13:00 +15°C° 0.2 mm 6 mps 760 mmHg 63%
14:00 +16°C° 0.2 mm 7 mps 760 mmHg 64%
15:00 +15°C° 0.4 mm 6 mps 760 mmHg 67%
16:00 +15°C° 0.4 mm 5 mps 760 mmHg 71%
17:00 +15°C° 0.4 mm 4 mps 760 mmHg 74%
18:00 +13°C° 0.1 mm 3 mps 761 mmHg 79%
19:00 +12°C° 0.1 mm 3 mps 761 mmHg 83%
20:00 +10°C° 0.1 mm 2 mps 762 mmHg 88%
21:00 +10°C° 0 mm 3 mps 762 mmHg 88%
22:00 +10°C° 0 mm 4 mps 762 mmHg 88%
23:00 +8°C° 0 mm 4 mps 763 mmHg 88%

7 March, Sunday

Time Temperature Precipitation Wind Pressure Humidity
00:00 +8°C° 0 mm 5 mps 763 mmHg 88%
01:00 +7°C° 0 mm 5 mps 762 mmHg 88%
02:00 +7°C° 0 mm 5 mps 762 mmHg 88%
03:00 +6°C° 0 mm 5 mps 762 mmHg 88%
04:00 +6°C° 0 mm 4 mps 762 mmHg 88%
05:00 +6°C° 0 mm 4 mps 762 mmHg 89%
06:00 +6°C° 0 mm 4 mps 762 mmHg 87%
07:00 +6°C° 0 mm 4 mps 762 mmHg 85%
08:00 +7°C° 0 mm 4 mps 763 mmHg 83%
09:00 +8°C° 0 mm 4 mps 763 mmHg 77%
10:00 +11°C° 0 mm 4 mps 763 mmHg 71%
11:00 +12°C° 0 mm 4 mps 763 mmHg 66%
12:00 +13°C° 0 mm 4 mps 762 mmHg 63%
13:00 +13°C° 0 mm 4 mps 762 mmHg 60%
14:00 +14°C° 0 mm 4 mps 761 mmHg 57%
15:00 +13°C° 0 mm 4 mps 761 mmHg 59%
16:00 +12°C° 0 mm 4 mps 761 mmHg 62%
17:00 +12°C° 0 mm 4 mps 761 mmHg 64%
18:00 +10°C° 0 mm 4 mps 761 mmHg 69%
19:00 +8°C° 0 mm 4 mps 761 mmHg 74%
20:00 +7°C° 0 mm 3 mps 761 mmHg 79%
21:00 +7°C° 0 mm 3 mps 761 mmHg 80%
22:00 +5°C° 0 mm 3 mps 761 mmHg 81%
23:00 +6°C° 0 mm 2 mps 761 mmHg 82%

8 March, Monday

Time Temperature Precipitation Wind Pressure Humidity
00:00 +6°C° 0 mm 2 mps 761 mmHg 83%
01:00 +5°C° 0 mm 2 mps 760 mmHg 83%
02:00 +5°C° 0 mm 2 mps 760 mmHg 84%
03:00 +5°C° 0 mm 2 mps 760 mmHg 85%
04:00 +4°C° 0 mm 2 mps 759 mmHg 85%
05:00 +4°C° 0 mm 2 mps 759 mmHg 86%
06:00 +5°C° 0 mm 2 mps 759 mmHg 83%
07:00 +5°C° 0 mm 2 mps 760 mmHg 80%
08:00 +6°C° 0 mm 2 mps 760 mmHg 78%
09:00 +9°C° 0 mm 1 mps 760 mmHg 70%
10:00 +11°C° 0 mm 1 mps 760 mmHg 62%
11:00 +13°C° 0 mm 1 mps 759 mmHg 55%
12:00 +13°C° 0 mm 1 mps 759 mmHg 52%
13:00 +14°C° 0 mm 2 mps 759 mmHg 49%
14:00 +15°C° 0 mm 2 mps 758 mmHg 46%
15:00 +14°C° 0 mm 2 mps 758 mmHg 49%
16:00 +14°C° 0 mm 2 mps 758 mmHg 51%
17:00 +13°C° 0 mm 2 mps 757 mmHg 54%
18:00 +12°C° 0 mm 1 mps 757 mmHg 58%
19:00 +11°C° 0 mm 1 mps 757 mmHg 63%
20:00 +9°C° 0 mm 1 mps 758 mmHg 67%
21:00 +9°C° 0 mm 1 mps 758 mmHg 67%
22:00 +9°C° 0 mm 1 mps 758 mmHg 68%
23:00 +9°C° 0 mm 1 mps 758 mmHg 68%

9 March, Tuesday

Time Temperature Precipitation Wind Pressure Humidity
00:00 +9°C° 0 mm 1 mps 758 mmHg 68%
01:00 +9°C° 0 mm 1 mps 757 mmHg 69%
02:00 +8°C° 0 mm 1 mps 757 mmHg 69%
03:00 +8°C° 0 mm 1 mps 757 mmHg 69%
04:00 +7°C° 0 mm 2 mps 757 mmHg 70%
05:00 +7°C° 0 mm 2 mps 756 mmHg 70%
06:00 +7°C° 0 mm 2 mps 757 mmHg 68%
07:00 +8°C° 0 mm 2 mps 757 mmHg 66%
08:00 +9°C° 0 mm 2 mps 757 mmHg 64%
09:00 +12°C° 0 mm 2 mps 757 mmHg 58%
10:00 +14°C° 0 mm 2 mps 757 mmHg 51%
11:00 +16°C° 0 mm 2 mps 757 mmHg 45%
12:00 +16°C° 0 mm 2 mps 757 mmHg 43%
13:00 +17°C° 0 mm 2 mps 756 mmHg 41%
14:00 +18°C° 0 mm 2 mps 756 mmHg 39%
15:00 +17°C° 0 mm 3 mps 756 mmHg 43%
16:00 +17°C° 0 mm 3 mps 756 mmHg 47%
17:00 +15°C° 0 mm 4 mps 756 mmHg 51%
18:00 +13°C° 0 mm 4 mps 757 mmHg 57%
19:00 +10°C° 0 mm 5 mps 757 mmHg 62%
20:00 +8°C° 0 mm 5 mps 758 mmHg 68%
21:00 +8°C° 0 mm 5 mps 758 mmHg 68%
22:00 +7°C° 0 mm 5 mps 758 mmHg 69%
23:00 +7°C° 0 mm 4 mps 759 mmHg 69%
Show more